POPACS 3

Last updated on Sun Jun 21 2026 00:03:50 GMT+0000 (Coordinated Universal Time)

1 39270U 13055F 26171.41764498 .00008387 00000+0 19717-3 0 9998 2 39270 80.9994 225.6848 0551839 60.1670 305.3203 14.56173217639021
UTC large
Height (km)
Speed (km/s)
/
Latitude / Longitude
Inclination (degrees)
Orbital Period (minutes)
Azimuth
Elevation
Range (km)
Doppler Factor

Next 0 passes for location: London (51.5072 / 0.1276)

No passes found over London.
POPACS 3